Terminal Aerodrome Forecast
Issued by NWS Billings, MT

Home | Current Version | Previous Version | Text Only | Print | Product List | Glossary Off
Versions: 1 2 3 4 5 6 7 8 9 10 11 12 13 14 15 16 17 18 19 20 21 22 23 24 25 26 27

000
FTUS45 KBYZ 240529
TAFMLS
TAF
KMLS 240529Z 2406/2506 34006KT P6SM SCT100
     FM241100 31007KT P6SM VCSH OVC060
     FM250100 28008KT P6SM BKN250=

USA.gov is the U.S. government's official web portal to all federal, state and local government web resources and services.